| time (UTC) | temp F | wind direction | speed MPH | gust MPH | rain 1hr in | rain 24hr in | rain mn in | humidity % | barometer mb |
| 20260506174504 | 57 | 48 | 3.0 | 8.0 | 0.00 | 0.00 | 0.00 | 66 | 1010.6 |
| 20260506173505 | 58 | 45 | 4.0 | 10.0 | 0.00 | 0.00 | 0.00 | 65 | 1010.5 |
| 20260506173004 | 58 | 60 | 3.0 | 8.0 | 0.00 | 0.00 | 0.00 | 65 | 1010.5 |
| 20260506172504 | 58 | 48 | 4.0 | 8.0 | 0.00 | 0.00 | 0.00 | 65 | 1010.4 |
| 20260506172004 | 58 | 54 | 3.0 | 8.0 | 0.00 | 0.00 | 0.00 | 65 | 1010.4 |
| 20260506170004 | 58 | 38 | 3.0 | 7.0 | 0.00 | 0.00 | 0.00 | 66 | 1010.3 |
| 20260506165504 | 58 | 53 | 3.0 | 8.0 | 0.00 | 0.00 | 0.00 | 66 | 1010.2 |
| 20260506165004 | 58 | 61 | 5.0 | 8.0 | 0.00 | 0.00 | 0.00 | 67 | 1010.1 |
| 20260506163504 | 58 | 29 | 2.0 | 8.0 | 0.00 | 0.00 | 0.00 | 69 | 1010.0 |
| 20260506162503 | 59 | 346 | 4.0 | 8.0 | 0.00 | 0.00 | 0.00 | 70 | 1010.0 |
| 20260506162004 | 59 | 351 | 4.0 | 8.0 | 0.00 | 0.00 | 0.00 | 69 | 1010.0 |
| 20260506161504 | 60 | 29 | 4.0 | 8.0 | 0.00 | 0.00 | 0.00 | 68 | 1009.9 |
| 20260506161004 | 60 | 11 | 3.0 | 7.0 | 0.00 | 0.00 | 0.00 | 68 | 1009.9 |
| 20260506160003 | 61 | 324 | 6.0 | 9.0 | 0.00 | 0.00 | 0.00 | 66 | 1009.9 |
| 20260506155504 | 60 | 16 | 6.0 | 9.0 | 0.00 | 0.00 | 0.00 | 66 | 1010.0 |
| 20260506154504 | 60 | 4 | 5.0 | 10.0 | 0.00 | 0.00 | 0.00 | 66 | 1010.0 |
| 20260506153504 | 59 | 326 | 4.0 | 8.0 | 0.00 | 0.00 | 0.00 | 69 | 1010.0 |
| 20260506153005 | 59 | 349 | 4.0 | 9.0 | 0.00 | 0.00 | 0.00 | 69 | 1010.0 |
| 20260506152504 | 58 | 329 | 3.0 | 8.0 | 0.00 | 0.00 | 0.00 | 70 | 1010.1 |
| 20260506140004 | 58 | 354 | 4.0 | 8.0 | 0.00 | 0.00 | 0.00 | 80 | 1009.9 |
| 20260506135504 | 58 | 321 | 5.0 | 10.0 | 0.00 | 0.00 | 0.00 | 81 | 1009.9 |
| 20260506135004 | 58 | 327 | 6.0 | 10.0 | 0.00 | 0.00 | 0.00 | 80 | 1009.9 |
| 20260506132003 | 58 | 326 | 5.0 | 9.0 | 0.00 | 0.00 | 0.00 | 73 | 1009.9 |
| 20260506131504 | 59 | 344 | 7.0 | 14.0 | 0.00 | 0.00 | 0.00 | 72 | 1009.8 |
| 20260506131004 | 59 | 321 | 6.0 | 12.0 | 0.00 | 0.00 | 0.00 | 71 | 1009.8 |
| 20260506130504 | 59 | 28 | 6.0 | 12.0 | 0.00 | 0.00 | 0.00 | 71 | 1009.8 |
| 20260506125503 | 59 | 33 | 3.0 | 10.0 | 0.00 | 0.00 | 0.00 | 71 | 1009.7 |
| 20260506125004 | 59 | 8 | 5.0 | 10.0 | 0.00 | 0.00 | 0.00 | 71 | 1009.7 |
| 20260506124504 | 59 | 321 | 5.0 | 12.0 | 0.00 | 0.00 | 0.00 | 72 | 1009.7 |
| 20260506124004 | 59 | 22 | 4.0 | 13.0 | 0.00 | 0.00 | 0.00 | 72 | 1009.7 |
| 20260506123504 | 59 | 3 | 4.0 | 8.0 | 0.00 | 0.00 | 0.00 | 73 | 1009.7 |
| 20260506123004 | 59 | 322 | 5.0 | 9.0 | 0.00 | 0.00 | 0.00 | 73 | 1009.6 |
| 20260506122504 | 59 | 323 | 5.0 | 12.0 | 0.00 | 0.00 | 0.00 | 74 | 1009.6 |
| 20260506122004 | 59 | 332 | 4.0 | 12.0 | 0.00 | 0.00 | 0.00 | 74 | 1009.6 |
| 20260506121004 | 59 | 344 | 4.0 | 10.0 | 0.00 | 0.00 | 0.00 | 75 | 1009.6 |
| 20260506120504 | 59 | 14 | 5.0 | 8.0 | 0.00 | 0.00 | 0.00 | 74 | 1009.6 |
| 20260506120004 | 59 | 319 | 6.0 | 12.0 | 0.00 | 0.00 | 0.00 | 74 | 1009.5 |
| 20260506115504 | 59 | 331 | 5.0 | 9.0 | 0.00 | 0.00 | 0.00 | 76 | 1009.5 |
| 20260506114504 | 60 | 324 | 5.0 | 9.0 | 0.00 | 0.00 | 0.00 | 75 | 1009.6 |
| 20260506114003 | 60 | 10 | 6.0 | 10.0 | 0.00 | 0.00 | 0.00 | 75 | 1009.5 |
| 20260506113503 | 60 | 328 | 6.0 | 12.0 | 0.00 | 0.00 | 0.00 | 73 | 1009.6 |
| 20260506113004 | 60 | 337 | 4.0 | 8.0 | 0.00 | 0.00 | 0.00 | 71 | 1009.5 |
| 20260506112503 | 61 | 320 | 6.0 | 10.0 | 0.00 | 0.00 | 0.00 | 72 | 1009.4 |
| 20260506112004 | 60 | 20 | 2.0 | 9.0 | 0.00 | 0.00 | 0.00 | 72 | 1009.4 |
| 20260506111503 | 60 | 36 | 4.0 | 9.0 | 0.00 | 0.00 | 0.00 | 74 | 1009.5 |
| 20260506111003 | 59 | 326 | 6.0 | 12.0 | 0.00 | 0.00 | 0.00 | 73 | 1009.6 |
| 20260506110004 | 59 | 346 | 6.0 | 14.0 | 0.00 | 0.00 | 0.00 | 76 | 1009.6 |
| 20260506105503 | 59 | 348 | 5.0 | 10.0 | 0.00 | 0.00 | 0.00 | 77 | 1009.6 |
| 20260506105004 | 59 | 35 | 4.0 | 12.0 | 0.00 | 0.00 | 0.00 | 78 | 1009.7 |
| 20260506104503 | 59 | 328 | 6.0 | 12.0 | 0.00 | 0.00 | 0.00 | 78 | 1009.6 |
| 20260506104004 | 59 | 31 | 4.0 | 9.0 | 0.00 | 0.00 | 0.00 | 80 | 1009.7 |
| 20260506103503 | 58 | 24 | 5.0 | 8.0 | 0.00 | 0.00 | 0.00 | 80 | 1009.7 |
| 20260506103004 | 58 | 334 | 6.0 | 10.0 | 0.00 | 0.00 | 0.00 | 81 | 1009.7 |
| 20260506102504 | 58 | 333 | 7.0 | 12.0 | 0.00 | 0.00 | 0.00 | 81 | 1009.6 |
| 20260506102004 | 58 | 22 | 5.0 | 10.0 | 0.00 | 0.00 | 0.00 | 82 | 1009.6 |
| 20260506101503 | 57 | 20 | 5.0 | 10.0 | 0.00 | 0.00 | 0.00 | 82 | 1009.6 |
| 20260506101004 | 57 | 0 | 3.0 | 9.0 | 0.00 | 0.00 | 0.00 | 83 | 1009.6 |
| 20260506100504 | 57 | 324 | 4.0 | 10.0 | 0.00 | 0.00 | 0.00 | 83 | 1009.6 |
| 20260506100004 | 57 | 337 | 6.0 | 12.0 | 0.00 | 0.00 | 0.00 | 84 | 1009.5 |
| 20260506095503 | 57 | 336 | 5.0 | 12.0 | 0.00 | 0.00 | 0.00 | 83 | 1009.5 |
| 20260506095004 | 57 | 321 | 6.0 | 13.0 | 0.00 | 0.00 | 0.00 | 84 | 1009.5 |
| 20260506094504 | 56 | 26 | 6.0 | 12.0 | 0.00 | 0.00 | 0.00 | 84 | 1009.4 |
| 20260506094004 | 56 | 335 | 5.0 | 10.0 | 0.00 | 0.00 | 0.00 | 86 | 1009.5 |
| 20260506092504 | 55 | 357 | 5.0 | 12.0 | 0.00 | 0.00 | 0.00 | 89 | 1009.5 |
| 20260506092004 | 55 | 9 | 6.0 | 12.0 | 0.00 | 0.00 | 0.00 | 89 | 1009.5 |
| 20260506091503 | 55 | 349 | 6.0 | 12.0 | 0.00 | 0.00 | 0.00 | 91 | 1009.5 |
| 20260506090504 | 54 | 334 | 6.0 | 16.0 | 0.00 | 0.00 | 0.00 | 92 | 1009.4 |
| 20260506090004 | 54 | 323 | 4.0 | 10.0 | 0.00 | 0.00 | 0.00 | 93 | 1009.3 |
| 20260506085504 | 53 | 24 | 5.0 | 10.0 | 0.00 | 0.00 | 0.00 | 93 | 1009.3 |
| 20260506085004 | 53 | 21 | 5.0 | 8.0 | 0.00 | 0.00 | 0.00 | 94 | 1009.3 |
| 20260506084505 | 53 | 342 | 6.0 | 12.0 | 0.00 | 0.00 | 0.00 | 94 | 1009.3 |
| 20260506084004 | 52 | 328 | 6.0 | 9.0 | 0.00 | 0.00 | 0.00 | 93 | 1009.3 |
| 20260506083503 | 52 | 18 | 2.0 | 7.0 | 0.00 | 0.00 | 0.00 | 93 | 1009.2 |
| 20260506083005 | 52 | 326 | 5.0 | 9.0 | 0.00 | 0.00 | 0.00 | 93 | 1009.2 |
| 20260506082504 | 51 | 23 | 4.0 | 10.0 | 0.00 | 0.00 | 0.00 | 92 | 1009.2 |
| 20260506082004 | 51 | 324 | 5.0 | 10.0 | 0.00 | 0.00 | 0.00 | 92 | 1009.2 |
| 20260506081503 | 51 | 327 | 3.0 | 7.0 | 0.00 | 0.00 | 0.00 | 92 | 1009.2 |
| 20260506081003 | 51 | 328 | 2.0 | 3.0 | 0.00 | 0.00 | 0.00 | 92 | 1009.2 |
| 20260506080504 | 51 | 328 | 2.0 | 8.0 | 0.00 | 0.00 | 0.00 | 92 | 1009.2 |
| 20260506073504 | 50 | 333 | 3.0 | 6.0 | 0.00 | 0.00 | 0.00 | 92 | 1009.2 |
| 20260506072503 | 50 | 339 | 2.0 | 6.0 | 0.00 | 0.00 | 0.00 | 92 | 1009.2 |
| 20260506072003 | 50 | 7 | 1.0 | 7.0 | 0.00 | 0.00 | 0.00 | 92 | 1009.1 |
| 20260506071504 | 50 | 22 | 1.0 | 5.0 | 0.00 | 0.00 | 0.00 | 92 | 1009.1 |
| 20260506071004 | 50 | 22 | 2.0 | 5.0 | 0.00 | 0.00 | 0.00 | 93 | 1009.1 |
| 20260506062003 | 50 | 20 | 2.0 | 8.0 | 0.00 | 0.00 | 0.00 | 94 | 1008.9 |
| 20260506061503 | 50 | 5 | 5.0 | 10.0 | 0.00 | 0.00 | 0.00 | 94 | 1008.9 |
| 20260506061004 | 50 | 355 | 2.0 | 5.0 | 0.00 | 0.00 | 0.00 | 94 | 1008.8 |
| 20260506050504 | 51 | 337 | 5.0 | 8.0 | 0.00 | 0.00 | 0.00 | 91 | 1008.6 |
| 20260506045004 | 51 | 26 | 5.0 | 12.0 | 0.00 | 0.00 | 0.00 | 91 | 1008.7 |
| 20260506044504 | 51 | 324 | 6.0 | 10.0 | 0.00 | 0.00 | 0.00 | 91 | 1008.7 |
| 20260506044004 | 51 | 20 | 3.0 | 6.0 | 0.00 | 0.00 | 0.00 | 91 | 1008.5 |
| 20260506043504 | 51 | 12 | 3.0 | 6.0 | 0.00 | 0.00 | 0.00 | 91 | 1008.5 |
| 20260506042003 | 51 | 343 | 5.0 | 10.0 | 0.00 | 0.00 | 0.00 | 91 | 1008.5 |
| 20260506041504 | 51 | 345 | 5.0 | 8.0 | 0.00 | 0.00 | 0.00 | 92 | 1008.6 |
| 20260506041004 | 51 | 343 | 3.0 | 6.0 | 0.00 | 0.00 | 0.00 | 92 | 1008.6 |
| 20260506040504 | 51 | 29 | 3.0 | 7.0 | 0.00 | 0.00 | 0.00 | 92 | 1008.7 |
| 20260506040004 | 51 | 16 | 2.0 | 5.0 | 0.00 | 0.00 | 0.00 | 92 | 1008.7 |
| 20260506035004 | 50 | 355 | 3.0 | 7.0 | 0.00 | 0.00 | 0.00 | 92 | 1008.6 |
| 20260506034504 | 50 | 355 | 4.0 | 6.0 | 0.00 | 0.00 | 0.00 | 92 | 1008.7 |
| 20260506034004 | 50 | 5 | 3.0 | 6.0 | 0.00 | 0.00 | 0.00 | 92 | 1008.7 |
| 20260506033503 | 50 | 36 | 3.0 | 7.0 | 0.00 | 0.00 | 0.00 | 92 | 1008.7 |
| 20260506033005 | 50 | 0 | 3.0 | 7.0 | 0.00 | 0.00 | 0.00 | 91 | 1008.7 |
| 20260506032504 | 50 | 329 | 5.0 | 8.0 | 0.00 | 0.00 | 0.00 | 91 | 1008.7 |
| 20260506032004 | 50 | 336 | 3.0 | 8.0 | 0.00 | 0.00 | 0.00 | 91 | 1008.8 |
| 20260506031505 | 50 | 333 | 3.0 | 8.0 | 0.00 | 0.00 | 0.00 | 91 | 1008.8 |
| 20260506031004 | 50 | 332 | 2.0 | 7.0 | 0.00 | 0.00 | 0.00 | 91 | 1008.8 |
| 20260506030505 | 50 | 329 | 4.0 | 8.0 | 0.00 | 0.00 | 0.00 | 91 | 1008.8 |
| 20260506030004 | 50 | 335 | 3.0 | 7.0 | 0.00 | 0.00 | 0.00 | 91 | 1008.9 |
| 20260506025004 | 50 | 355 | 2.0 | 5.0 | 0.00 | 0.00 | 0.00 | 91 | 1008.9 |
| 20260506024503 | 50 | 0 | 4.0 | 7.0 | 0.00 | 0.00 | 0.00 | 91 | 1008.9 |
| 20260506024004 | 50 | 349 | 2.0 | 7.0 | 0.00 | 0.00 | 0.00 | 91 | 1008.9 |
| 20260506023504 | 50 | 6 | 3.0 | 7.0 | 0.00 | 0.00 | 0.00 | 91 | 1008.9 |
| 20260506023004 | 50 | 5 | 3.0 | 7.0 | 0.00 | 0.00 | 0.00 | 91 | 1009.0 |
| 20260506022504 | 50 | 341 | 3.0 | 7.0 | 0.00 | 0.00 | 0.00 | 91 | 1009.0 |
| 20260506022004 | 50 | 352 | 3.0 | 6.0 | 0.00 | 0.00 | 0.00 | 91 | 1009.1 |
| 20260506021504 | 50 | 355 | 3.0 | 7.0 | 0.00 | 0.00 | 0.00 | 90 | 1009.1 |
| 20260506021004 | 50 | 350 | 3.0 | 6.0 | 0.00 | 0.00 | 0.00 | 90 | 1009.1 |
| 20260506020503 | 50 | 345 | 4.0 | 7.0 | 0.00 | 0.00 | 0.00 | 90 | 1009.1 |
| 20260506020004 | 50 | 12 | 3.0 | 7.0 | 0.00 | 0.00 | 0.00 | 90 | 1009.1 |
| 20260506015504 | 50 | 329 | 4.0 | 8.0 | 0.00 | 0.00 | 0.00 | 90 | 1009.1 |
| 20260506015004 | 50 | 359 | 4.0 | 6.0 | 0.00 | 0.00 | 0.00 | 90 | 1009.2 |
| 20260506013504 | 50 | 338 | 3.0 | 8.0 | 0.00 | 0.00 | 0.00 | 90 | 1009.2 |
| 20260506013004 | 50 | 334 | 5.0 | 8.0 | 0.00 | 0.00 | 0.00 | 90 | 1009.2 |
| 20260506012504 | 50 | 5 | 3.0 | 6.0 | 0.00 | 0.00 | 0.00 | 89 | 1009.2 |
| 20260506011504 | 50 | 23 | 4.0 | 8.0 | 0.00 | 0.00 | 0.00 | 89 | 1009.2 |
| 20260506011003 | 50 | 35 | 4.0 | 7.0 | 0.00 | 0.00 | 0.00 | 89 | 1009.1 |
| 20260506010503 | 51 | 346 | 2.0 | 5.0 | 0.00 | 0.00 | 0.00 | 89 | 1009.2 |
| 20260506010004 | 51 | 343 | 3.0 | 7.0 | 0.00 | 0.00 | 0.00 | 89 | 1009.2 |
| 20260506005003 | 51 | 349 | 3.0 | 7.0 | 0.00 | 0.00 | 0.00 | 89 | 1009.3 |
| 20260506004504 | 51 | 0 | 2.0 | 6.0 | 0.00 | 0.00 | 0.00 | 88 | 1009.3 |
| 20260506004003 | 51 | 355 | 3.0 | 5.0 | 0.00 | 0.00 | 0.00 | 88 | 1009.3 |
| 20260506003504 | 51 | 5 | 3.0 | 7.0 | 0.00 | 0.00 | 0.00 | 88 | 1009.4 |
| 20260506003004 | 51 | 24 | 5.0 | 8.0 | 0.00 | 0.00 | 0.00 | 87 | 1009.5 |
| 20260506002004 | 51 | 347 | 4.0 | 7.0 | 0.00 | 0.00 | 0.00 | 88 | 1009.6 |
| 20260506001504 | 51 | 342 | 3.0 | 7.0 | 0.00 | 0.00 | 0.00 | 88 | 1009.6 |
| 20260506001004 | 51 | 26 | 2.0 | 7.0 | 0.00 | 0.00 | 0.00 | 88 | 1009.6 |
| 20260506000504 | 51 | 19 | 3.0 | 7.0 | 0.00 | 0.00 | 0.00 | 88 | 1009.6 |
| 20260505235504 | 51 | 352 | 3.0 | 9.0 | 0.00 | 0.00 | 0.00 | 88 | 1009.6 |
| 20260505235004 | 51 | 30 | 3.0 | 8.0 | 0.00 | 0.00 | 0.00 | 88 | 1009.6 |
| 20260505234505 | 51 | 20 | 4.0 | 9.0 | 0.00 | 0.00 | 0.00 | 88 | 1009.6 |
| 20260505234004 | 51 | 5 | 4.0 | 9.0 | 0.00 | 0.00 | 0.00 | 88 | 1009.7 |
| 20260505233003 | 51 | 39 | 5.0 | 9.0 | 0.00 | 0.00 | 0.00 | 88 | 1009.8 |
| 20260505232504 | 51 | 4 | 5.0 | 12.0 | 0.00 | 0.00 | 0.00 | 88 | 1009.8 |
| 20260505231004 | 51 | 22 | 4.0 | 12.0 | 0.00 | 0.00 | 0.00 | 88 | 1009.8 |
| 20260505230504 | 52 | 17 | 3.0 | 5.0 | 0.00 | 0.00 | 0.00 | 88 | 1009.8 |
| 20260505230004 | 52 | 15 | 3.0 | 8.0 | 0.00 | 0.00 | 0.00 | 88 | 1009.8 |
| 20260505225504 | 52 | 28 | 5.0 | 8.0 | 0.00 | 0.00 | 0.00 | 87 | 1009.8 |
| 20260505225004 | 52 | 39 | 3.0 | 7.0 | 0.00 | 0.00 | 0.00 | 87 | 1009.8 |
| 20260505224504 | 52 | 31 | 4.0 | 7.0 | 0.00 | 0.00 | 0.00 | 87 | 1010.0 |
| 20260505224004 | 52 | 34 | 5.0 | 10.0 | 0.00 | 0.00 | 0.00 | 86 | 1010.0 |
| 20260505223504 | 52 | 32 | 3.0 | 9.0 | 0.00 | 0.00 | 0.00 | 86 | 1010.0 |
| 20260505223005 | 52 | 52 | 5.0 | 8.0 | 0.00 | 0.00 | 0.00 | 86 | 1010.0 |
| 20260505222004 | 52 | 18 | 3.0 | 8.0 | 0.00 | 0.00 | 0.00 | 85 | 1010.0 |
| 20260505221004 | 53 | 28 | 3.0 | 9.0 | 0.00 | 0.00 | 0.00 | 85 | 1009.9 |
| 20260505220004 | 53 | 24 | 5.0 | 14.0 | 0.00 | 0.00 | 0.00 | 85 | 1010.0 |
| 20260505215504 | 53 | 8 | 6.0 | 14.0 | 0.00 | 0.00 | 0.00 | 85 | 1009.9 |
| 20260505215005 | 53 | 27 | 4.0 | 9.0 | 0.00 | 0.00 | 0.00 | 85 | 1010.0 |
| 20260505214504 | 53 | 31 | 5.0 | 12.0 | 0.00 | 0.00 | 0.00 | 85 | 1010.0 |
| 20260505214004 | 53 | 26 | 6.0 | 10.0 | 0.00 | 0.00 | 0.00 | 85 | 1010.0 |
| 20260505213004 | 53 | 18 | 5.0 | 12.0 | 0.00 | 0.00 | 0.00 | 84 | 1010.0 |
| 20260505212503 | 53 | 20 | 5.0 | 13.0 | 0.00 | 0.00 | 0.00 | 85 | 1010.0 |
| 20260505211503 | 54 | 35 | 5.0 | 10.0 | 0.00 | 0.00 | 0.00 | 84 | 1010.0 |
| 20260505210504 | 54 | 36 | 3.0 | 12.0 | 0.00 | 0.00 | 0.00 | 83 | 1010.0 |
| 20260505210004 | 54 | 28 | 7.0 | 12.0 | 0.00 | 0.00 | 0.00 | 83 | 1010.1 |
| 20260505205504 | 54 | 19 | 5.0 | 10.0 | 0.00 | 0.00 | 0.00 | 83 | 1010.1 |
| 20260505205005 | 54 | 27 | 4.0 | 12.0 | 0.00 | 0.00 | 0.00 | 83 | 1010.1 |
| 20260505204505 | 54 | 25 | 5.0 | 12.0 | 0.00 | 0.00 | 0.00 | 83 | 1010.0 |
| 20260505204003 | 54 | 28 | 5.0 | 10.0 | 0.00 | 0.00 | 0.00 | 83 | 1010.0 |
| 20260505203005 | 54 | 32 | 6.0 | 13.0 | 0.00 | 0.00 | 0.00 | 83 | 1010.0 |
| 20260505202504 | 54 | 17 | 5.0 | 12.0 | 0.00 | 0.00 | 0.00 | 83 | 1009.9 |
| 20260505202005 | 55 | 22 | 5.0 | 12.0 | 0.00 | 0.00 | 0.00 | 83 | 1010.0 |
| 20260505201504 | 55 | 30 | 6.0 | 12.0 | 0.00 | 0.00 | 0.00 | 83 | 1009.8 |
| 20260505201003 | 55 | 30 | 5.0 | 9.0 | 0.00 | 0.00 | 0.00 | 83 | 1009.7 |
| 20260505200504 | 55 | 29 | 6.0 | 10.0 | 0.00 | 0.00 | 0.00 | 83 | 1009.7 |
| 20260505195504 | 55 | 25 | 4.0 | 10.0 | 0.00 | 0.00 | 0.00 | 83 | 1009.7 |
| 20260505195004 | 55 | 27 | 6.0 | 9.0 | 0.00 | 0.00 | 0.00 | 83 | 1009.7 |
| 20260505194504 | 55 | 23 | 5.0 | 13.0 | 0.00 | 0.00 | 0.00 | 83 | 1009.6 |
| 20260505194004 | 55 | 21 | 5.0 | 9.0 | 0.00 | 0.00 | 0.00 | 83 | 1009.6 |
| 20260505193504 | 55 | 25 | 3.0 | 8.0 | 0.00 | 0.00 | 0.00 | 83 | 1009.6 |
| 20260505192504 | 56 | 13 | 3.0 | 9.0 | 0.00 | 0.00 | 0.00 | 83 | 1009.5 |
| 20260505192004 | 56 | 28 | 3.0 | 10.0 | 0.00 | 0.00 | 0.00 | 84 | 1009.4 |
| 20260505191504 | 56 | 24 | 4.0 | 12.0 | 0.00 | 0.00 | 0.00 | 83 | 1009.4 |
| 20260505191004 | 56 | 24 | 3.0 | 8.0 | 0.00 | 0.00 | 0.00 | 83 | 1009.4 |
| 20260505190504 | 56 | 358 | 4.0 | 10.0 | 0.00 | 0.00 | 0.00 | 83 | 1009.3 |
| 20260505190004 | 56 | 20 | 5.0 | 9.0 | 0.00 | 0.00 | 0.00 | 83 | 1009.2 |
| 20260505185504 | 57 | 14 | 3.0 | 8.0 | 0.00 | 0.00 | 0.00 | 83 | 1009.2 |
| 20260505185004 | 57 | 24 | 6.0 | 9.0 | 0.00 | 0.00 | 0.00 | 83 | 1009.2 |
| 20260505184504 | 57 | 17 | 3.0 | 12.0 | 0.00 | 0.00 | 0.00 | 83 | 1009.2 |
| 20260505184004 | 57 | 25 | 5.0 | 10.0 | 0.00 | 0.00 | 0.00 | 82 | 1009.2 |
| 20260505183504 | 57 | 40 | 5.0 | 9.0 | 0.00 | 0.00 | 0.00 | 82 | 1009.1 |
| 20260505183004 | 57 | 352 | 4.0 | 9.0 | 0.00 | 0.00 | 0.00 | 81 | 1009.2 |
| 20260505182004 | 58 | 21 | 5.0 | 8.0 | 0.00 | 0.00 | 0.00 | 81 | 1009.1 |
| 20260505181504 | 58 | 23 | 5.0 | 10.0 | 0.00 | 0.00 | 0.00 | 80 | 1009.1 |
| 20260505181003 | 58 | 18 | 5.0 | 10.0 | 0.00 | 0.00 | 0.00 | 80 | 1009.2 |
| 20260505180504 | 58 | 14 | 6.0 | 12.0 | 0.00 | 0.00 | 0.00 | 81 | 1009.2 |
| 20260505180004 | 59 | 20 | 3.0 | 8.0 | 0.00 | 0.00 | 0.00 | 81 | 1009.2 |
| 20260505175504 | 58 | 32 | 2.0 | 5.0 | 0.00 | 0.00 | 0.00 | 84 | 1009.2 |